OpenBCM V2.0.2 (Linux)

Packet Radio Mailbox

IZ3LSV

[San Dona' di P. JN]

 Login: GUEST





  
CX2SA  > KEPS     13.07.12 06:45l 347 Lines 9161 Bytes #999 (0) @ WW
BID : ORB12194.M
Read: GUEST
Subj: Orbital Elements  12194.MISC
Path: IZ3LSV<IR1UAW<IK1NHL<CX2SA
Sent: 120713/0444Z @:CX2SA.SAL.URY.SA #:62998 [Salto] FBB7.00e $:ORB12194.M
From: CX2SA@CX2SA.SAL.URY.SA
To  : KEPS@AMSAT


HR AMSAT ORBITAL ELEMENTS FOR MANNED AND MISCELLANEOUS SATELLITES
FROM WA5QGD FORT WORTH,TX July 12, 2012
Send SUBSCRIBE KEPS/UNSUBSCRIBE KEPS to majordomo@amsat.org only
BID: ORB12194.M
TO ALL RADIO AMATEURS BT

Satellite: HUBBLE
Catalog number: 20580
Epoch time:      12193.03576048
Element set:      32
Inclination:      028.4712 deg
RA of node:       347.4631 deg
Eccentricity:    0.0003127
Arg of perigee:   316.5196 deg
Mean anomaly:     043.5274 deg
Mean motion:   15.02610750 rev/day
Decay rate:      1.824e-05 rev/day^2
Epoch rev:            1832
Checksum:              254

Satellite: ISS
Catalog number: 25544
Epoch time:      12194.96999841
Element set:     915
Inclination:      051.6411 deg
RA of node:       353.5041 deg
Eccentricity:    0.0007507
Arg of perigee:   147.7076 deg
Mean anomaly:     353.7040 deg
Mean motion:   15.56107188 rev/day
Decay rate:     1.2478e-04 rev/day^2
Epoch rev:           78202
Checksum:              309

Satellite: CO-58
Catalog number: 28895
Epoch time:      12193.67573780
Element set:     223
Inclination:      097.9094 deg
RA of node:       058.8676 deg
Eccentricity:    0.0019056
Arg of perigee:   076.8021 deg
Mean anomaly:     283.5314 deg
Mean motion:   14.60671249 rev/day
Decay rate:       6.98e-06 rev/day^2
Epoch rev:           35723
Checksum:              353

Satellite: FALCON
Catalog number: 30776
Epoch time:      12194.81749567
Element set:     388
Inclination:      035.4280 deg
RA of node:       120.2726 deg
Eccentricity:    0.0001848
Arg of perigee:   269.0052 deg
Mean anomaly:     091.0465 deg
Mean motion:   15.07726910 rev/day
Decay rate:      4.189e-05 rev/day^2
Epoch rev:           29412
Checksum:              304

Satellite: MAST
Catalog number: 31126
Epoch time:      12193.92499888
Element set:    0507
Inclination:      097.8737 deg
RA of node:       203.5776 deg
Eccentricity:    0.0094643
Arg of perigee:   034.1038 deg
Mean anomaly:     326.6194 deg
Mean motion:   14.54193664 rev/day
Decay rate:       6.69e-06 rev/day^2
Epoch rev:           27786
Checksum:              348

Satellite: CAPE1
Catalog number: 31130
Epoch time:      12194.53258688
Element set:     514
Inclination:      097.8821 deg
RA of node:       200.5164 deg
Eccentricity:    0.0102358
Arg of perigee:   045.4934 deg
Mean anomaly:     315.4566 deg
Mean motion:   14.52984161 rev/day
Decay rate:      1.010e-05 rev/day^2
Epoch rev:           27745
Checksum:              288

Satellite: COMPASS
Catalog number: 32787
Epoch time:      12193.61153704
Element set:    0352
Inclination:      097.7977 deg
RA of node:       254.4062 deg
Eccentricity:    0.0014644
Arg of perigee:   345.2751 deg
Mean anomaly:     014.8044 deg
Mean motion:   14.84102521 rev/day
Decay rate:      2.684e-05 rev/day^2
Epoch rev:           22743
Checksum:              290

Satellite: AAUSAT2
Catalog number: 32788
Epoch time:      12194.65432432
Element set:     344
Inclination:      097.7991 deg
RA of node:       255.8215 deg
Eccentricity:    0.0014451
Arg of perigee:   342.8555 deg
Mean anomaly:     017.2184 deg
Mean motion:   14.84433833 rev/day
Decay rate:      2.267e-05 rev/day^2
Epoch rev:           22761
Checksum:              311

Satellite: DO-64
Catalog number: 32789
Epoch time:      12193.86767579
Element set:     359
Inclination:      097.8098 deg
RA of node:       257.1677 deg
Eccentricity:    0.0013552
Arg of perigee:   341.7221 deg
Mean anomaly:     018.3572 deg
Mean motion:   14.85986722 rev/day
Decay rate:      4.190e-05 rev/day^2
Epoch rev:           22754
Checksum:              360

Satellite: CO-66
Catalog number: 32791
Epoch time:      12194.62262455
Element set:     343
Inclination:      097.7977 deg
RA of node:       255.1153 deg
Eccentricity:    0.0015267
Arg of perigee:   341.6312 deg
Mean anomaly:     018.4325 deg
Mean motion:   14.83505960 rev/day
Decay rate:      2.198e-05 rev/day^2
Epoch rev:           22751
Checksum:              312

Satellite: RS-30
Catalog number: 32953
Epoch time:      12194.72408805
Element set:     953
Inclination:      082.5034 deg
RA of node:       279.2598 deg
Eccentricity:    0.0017535
Arg of perigee:   250.3552 deg
Mean anomaly:     109.5642 deg
Mean motion:   12.43025469 rev/day
Decay rate:        1.0e-07 rev/day^2
Epoch rev:           18773
Checksum:              301

Satellite: TACSAT-3
Catalog number: 35001
Epoch time:      12121.72616188
Element set:    0001
Inclination:      040.4259 deg
RA of node:       351.8840 deg
Eccentricity:    0.0007146
Arg of perigee:   275.2650 deg
Mean anomaly:     085.0693 deg
Mean motion:   16.45157000 rev/day
Decay rate:  1.5204951e-01 rev/day^2
Epoch rev:           16699
Checksum:              280

Satellite: PHARMSAT
Catalog number: 35002
Epoch time:      12194.57296414
Element set:     979
Inclination:      040.4550 deg
RA of node:       263.7272 deg
Eccentricity:    0.0008508
Arg of perigee:   072.3319 deg
Mean anomaly:     287.8418 deg
Mean motion:   15.93775573 rev/day
Decay rate:    2.58078e-03 rev/day^2
Epoch rev:           17836
Checksum:              334

Satellite: METEOR-M
Catalog number: 35865
Epoch time:      12194.90461606
Element set:     583
Inclination:      098.6529 deg
RA of node:       248.7464 deg
Eccentricity:    0.0002454
Arg of perigee:   000.7354 deg
Mean anomaly:     359.3826 deg
Mean motion:   14.21865627 rev/day
Decay rate:       -1.1e-07 rev/day^2
Epoch rev:           14625
Checksum:              310

Satellite: RS-38
Catalog number: 35869
Epoch time:      12194.85158932
Element set:     590
Inclination:      098.6481 deg
RA of node:       248.6857 deg
Eccentricity:    0.0004499
Arg of perigee:   349.8050 deg
Mean anomaly:     010.3034 deg
Mean motion:   14.22078083 rev/day
Decay rate:        3.4e-07 rev/day^2
Epoch rev:           14626
Checksum:              328

Satellite: JUGNU
Catalog number: 37839
Epoch time:      12193.40903270
Element set:     184
Inclination:      019.9611 deg
RA of node:       211.4844 deg
Eccentricity:    0.0019457
Arg of perigee:   127.3951 deg
Mean anomaly:     232.8224 deg
Mean motion:   14.12065795 rev/day
Decay rate:       6.20e-06 rev/day^2
Epoch rev:            3867
Checksum:              293

Satellite: SRMSAT
Catalog number: 37841
Epoch time:      12193.28422884
Element set:    0186
Inclination:      019.9709 deg
RA of node:       217.6057 deg
Eccentricity:    0.0011775
Arg of perigee:   095.1371 deg
Mean anomaly:     265.0402 deg
Mean motion:   14.10148422 rev/day
Decay rate:       2.64e-06 rev/day^2
Epoch rev:           03860
Checksum:              286

Satellite: RAX-2
Catalog number: 37853
Epoch time:      12194.73831935
Element set:     228
Inclination:      101.7113 deg
RA of node:       246.5598 deg
Eccentricity:    0.0246353
Arg of perigee:   278.0641 deg
Mean anomaly:     079.2673 deg
Mean motion:   14.80186544 rev/day
Decay rate:      2.815e-05 rev/day^2
Epoch rev:            3817
Checksum:              319

Satellite: AUBIESAT
Catalog number: 37854
Epoch time:      12193.87541563
Element set:    0237
Inclination:      101.7127 deg
RA of node:       245.5848 deg
Eccentricity:    0.0246779
Arg of perigee:   279.6939 deg
Mean anomaly:     077.6466 deg
Mean motion:   14.80575355 rev/day
Decay rate:      2.763e-05 rev/day^2
Epoch rev:           03804
Checksum:              349

Satellite: HRBE
Catalog number: 37855
Epoch time:      12193.82395602
Element set:    0238
Inclination:      101.7114 deg
RA of node:       245.4585 deg
Eccentricity:    0.0247593
Arg of perigee:   280.0760 deg
Mean anomaly:     077.2579 deg
Mean motion:   14.80422342 rev/day
Decay rate:      2.414e-05 rev/day^2
Epoch rev:           03803
Checksum:              293

Satellite: RS-39
Catalog number: 38051
Epoch time:      12194.96502477
Element set:     507
Inclination:      051.6391 deg
RA of node:       036.9706 deg
Eccentricity:    0.0014831
Arg of perigee:   126.6867 deg
Mean anomaly:     034.8031 deg
Mean motion:   15.24680811 rev/day
Decay rate:      7.962e-05 rev/day^2
Epoch rev:            2590
Checksum:              311

Satellite: E-STAR
Catalog number: 38079
Epoch time:      12194.60413678
Element set:     343
Inclination:      069.4946 deg
RA of node:       257.5365 deg
Eccentricity:    0.0738913
Arg of perigee:   215.9259 deg
Mean anomaly:     138.9763 deg
Mean motion:   14.16375344 rev/day
Decay rate:     4.6460e-04 rev/day^2
Epoch rev:            2118
Checksum:              339

Satellite: GOLIAT
Catalog number: 38085
Epoch time:      12194.61344988
Element set:     314
Inclination:      069.4922 deg
RA of node:       257.8561 deg
Eccentricity:    0.0743845
Arg of perigee:   216.2678 deg
Mean anomaly:     138.5572 deg
Mean motion:   14.15373151 rev/day
Decay rate:     4.6936e-04 rev/day^2
Epoch rev:            2117
Checksum:              329

Satellite: HORYU-2
Catalog number: 38340
Epoch time:      12193.87553771
Element set:      49
Inclination:      098.1757 deg
RA of node:       133.6607 deg
Eccentricity:    0.0011806
Arg of perigee:   250.7708 deg
Mean anomaly:     109.3020 deg
Mean motion:   14.70029689 rev/day
Decay rate:      1.291e-05 rev/day^2
Epoch rev:             810
Checksum:              292



Read previous mail | Read next mail


 01.05.2026 19:57:37lGo back Go up